Simultaneous Nadir Overpasses (SNOs) Predictions

Prediction of SNOs between FY3D and METOP-C Satellite Orbit:

Table of predicted SNOs for the next 14.0 days since TLE Epoch: 5/10/2025
Index Date (FY3D) Time (FY3D) Lat,Lon (FY3D) SZA (FY3D ) Date (METOP-C) Time (METOP-C) Lat,Lon (METOP-C) SZA (METOP-C ) Distance(km) Time Diff (sec)
1 05/21/2025 02:16:50 77.30, 147.36 57.03 05/21/2025 02:17:56 77.28, 150.69 57.07 81.42 66
2 05/21/2025 03:07:32 -77.21, -44.89 123.07 05/21/2025 03:08:40 -77.16, -42.47 123.07 59.97 68
3 05/21/2025 03:58:12 76.98, 123.42 56.72 05/21/2025 03:59:25 76.96, 124.00 56.70 14.98 73
4 05/21/2025 04:48:54 -76.89, -68.87 123.38 05/21/2025 04:50:08 -76.89, -68.96 123.38 2.31 74
5 05/21/2025 05:39:40 76.92, 98.33 56.64 05/21/2025 05:40:48 76.90, 98.42 56.63 3.30 68
6 05/21/2025 06:30:24 -76.91, -94.32 123.38 05/21/2025 06:31:29 -76.91, -94.18 123.37 3.44 65
7 05/21/2025 07:21:09 76.89, 73.06 56.60 05/21/2025 07:22:10 76.88, 73.01 56.59 1.94 61
8 05/21/2025 08:11:53 -76.89,-119.59 123.41 05/21/2025 08:12:51 -76.90,-119.59 123.40 1.31 58
9 05/21/2025 09:02:38 76.87, 47.79 56.57 05/21/2025 09:03:31 76.91, 47.79 56.61 4.14 53
10 05/21/2025 09:53:23 -76.91,-145.04 123.41 05/21/2025 09:54:13 -76.88,-144.99 123.43 2.91 50
11 05/21/2025 10:44:08 76.89, 22.33 56.57 05/21/2025 10:44:53 76.89, 22.38 56.58 1.24 45
12 05/21/2025 11:34:52 -76.88,-170.31 123.45 05/21/2025 11:35:35 -76.87,-170.40 123.46 2.73 43
13 05/21/2025 12:25:37 76.87, -2.94 56.54 05/21/2025 12:26:15 76.88, -3.02 56.55 2.35 38
14 05/21/2025 13:16:22 -76.90, 164.23 123.44 05/21/2025 13:16:56 -76.89, 164.38 123.45 3.68 34
15 05/21/2025 14:07:07 76.89, -28.39 56.54 05/21/2025 14:07:37 76.86, -28.43 56.52 3.08 30
16 05/21/2025 14:57:51 -76.88, 138.96 123.48 05/21/2025 14:58:18 -76.88, 138.97 123.48 0.25 27
17 05/21/2025 15:48:36 76.86, -53.66 56.50 05/21/2025 15:48:58 76.89, -53.66 56.53 2.79 22
18 05/21/2025 16:39:20 -76.85, 113.69 123.51 05/21/2025 16:39:40 -76.86, 113.57 123.51 3.21 20
19 05/21/2025 17:30:06 76.88, -79.12 56.51 05/21/2025 17:30:20 76.87, -79.06 56.50 1.88 14
20 05/21/2025 18:20:50 -76.87, 88.24 123.51 05/21/2025 18:21:01 -76.89, 88.34 123.49 3.14 11
21 05/21/2025 19:11:35 76.86,-104.39 56.47 05/21/2025 19:11:42 76.86,-104.46 56.47 1.92 7
22 05/21/2025 20:02:19 -76.85, 62.96 123.55 05/21/2025 20:02:23 -76.87, 62.93 123.52 2.77 4
23 05/21/2025 20:53:05 76.88,-129.84 56.48 05/21/2025 20:53:03 76.88,-129.69 56.49 3.84 2
24 05/21/2025 21:43:49 -76.87, 37.51 123.54 05/21/2025 21:43:45 -76.86, 37.53 123.55 1.35 4
25 05/21/2025 22:34:34 76.85,-155.12 56.44 05/21/2025 22:34:25 76.87,-155.10 56.45 1.47 9
26 05/21/2025 23:25:18 -76.84, 12.24 123.58 05/21/2025 23:25:07 -76.84, 12.13 123.59 2.93 11
27 05/22/2025 00:16:04 76.87, 179.43 56.45 05/22/2025 00:15:47 76.85, 179.50 56.42 3.08 17
28 05/22/2025 01:06:48 -76.86, -13.21 123.57 05/22/2025 01:06:28 -76.87, -13.10 123.57 2.80 20
29 05/22/2025 01:57:33 76.85, 154.16 56.41 05/22/2025 01:57:09 76.83, 154.09 56.39 2.41 24
30 05/22/2025 02:48:17 -76.84, -38.48 123.61 05/22/2025 02:47:50 -76.85, -38.51 123.60 1.46 27
31 05/22/2025 03:39:02 76.83, 128.89 56.37 05/22/2025 03:38:30 76.86, 128.87 56.41 4.02 32
32 05/22/2025 04:29:47 -76.86, -63.94 123.61 05/22/2025 04:29:12 -76.84, -63.91 123.63 2.68 35
33 05/22/2025 05:20:32 76.85, 103.43 56.38 05/22/2025 05:19:52 76.85, 103.46 56.38 0.70 40
34 05/22/2025 06:11:16 -76.84, -89.21 123.64 05/22/2025 06:10:34 -76.82, -89.31 123.66 3.22 42
35 05/22/2025 07:02:01 76.82, 78.16 56.34 05/22/2025 07:01:14 76.83, 78.06 56.35 2.76 47
36 05/22/2025 07:52:46 -76.86,-114.66 123.64 05/22/2025 07:51:55 -76.85,-114.54 123.65 3.07 51
37 05/22/2025 08:43:31 76.84, 52.71 56.35 05/22/2025 08:42:36 76.81, 52.65 56.31 3.47 55
38 05/22/2025 09:34:15 -76.83,-139.93 123.67 05/22/2025 09:33:17 -76.83,-139.95 123.68 0.37 58
39 05/22/2025 10:25:00 76.82, 27.43 56.31 05/22/2025 10:23:57 76.84, 27.42 56.33 2.58 63
40 05/22/2025 11:15:44 -76.81,-165.21 123.71 05/22/2025 11:14:39 -76.82,-165.35 123.71 3.79 65
41 05/22/2025 12:06:30 76.84, 1.98 56.32 05/22/2025 12:05:19 76.83, 2.02 56.30 1.71 71
42 05/22/2025 12:57:14 -76.83, 169.34 123.70 05/22/2025 12:56:00 -76.84, 169.42 123.69 2.64 74
43 05/22/2025 13:47:56 76.68, -22.76 56.16 05/22/2025 13:46:44 76.68, -23.91 56.13 29.43 72
44 05/22/2025 14:38:38 -76.59, 144.95 123.94 05/22/2025 14:37:28 -76.56, 142.99 124.01 50.74 70



Historial Predications of SNOs between FY3D and METOP-C
